Погода в Вязьме-Брянской

Россия / Смоленская область     55°09′43″N   34°21′46″E
темп.,
°C
ветер,
м/с
пор.,
м/с
влажн.,
%
обл.,
%
осадки,
мм/ч
давл.,
гПа
погр.,
м
21 апреля, ср
ср2100:00+2всв3595100 0.1 1012600
03:00+2с3598100 0.1 1009401
06:00+2с3598100 0.1 1007400
09:00+2сз3697100 0.1 1006467
12:00+4зсз4790100 0.1 1007704
15:00+6з4670100 0.3 10071112
18:00+7зюз357461 0.1 1008783
21:00+5ююз368846 0.2 1010212
22 апреля, чт
чт2200:00+3ююз399384 0.0 1011194
03:00+2ююз39955 0.0 1012171
06:00+2ю399689 0.0 1012179
09:00+7ююз598323 0.0 1012440
12:00+12ююз576654 0.1 10121220
15:00+12ю596787 1.4 10121269
18:00+12ю597469 1.1 1011797
21:00+8ю4109039 1.4 1012213
23 апреля, пт
пт2300:00+7ю41292100 0.0 1012288
03:00+7ю6149382 0.0 1011609
06:00+8ююз6118996 0.0 1012695
09:00+5з4692100 0.2 1014607
12:00+4зюз3696100 2.2 1015470
15:00+7ююз127699 5.7 1014658
18:00+5ююв1291100 1.8 1014297
21:00+4юв1195100 2.3 101390
24 апреля, сб
сб2400:00+4з3691100 0.9 1011518
03:00+3з3697100 1.8 1009520
06:00+2з2598100 1.6 1009403
09:00+3зюз3699100 2.5 1009347
12:00+6з3566100 0.8 10081316
15:00+7з676194 2.2 10081501
18:00+5з68715 0.5 10091117
21:00+1зюз38865 0.5 1009173
25 апреля, вс
вс2500:000зюз499312 0.0 1009314
03:00+1зюз4894100 0.0 1009741
06:00+1зюз51091100 0.1 1009694
09:00+3з577472 0.1 10091034
12:00+6зюз5754100 0.6 10091819
15:00+6юз6748100 1.3 10091956
18:00+5юз565122 0.1 10081471
21:00+1ююз368429 0.5 1009150